Preview of NWS' New Version of Forecast
This preview is not operational and should not be used for support decisions.

Regional Weather Roundup (RWR)

Issued by National Weather Service (NWS)

                            
000
ASUS42 KTBW 250016
RWRFL 
FLORIDA REGIONAL WEATHER ROUNDUP
NATIONAL WEATHER SERVICE TAMPA BAY RUSKIN FL
800 PM EDT FRI MAY 24 2019

NOTE: "FAIR" INDICATES FEW OR NO CLOUDS BELOW 12,000 FEET WITH NO
SIGNIFICANT WEATHER AND/OR OBSTRUCTIONS TO VISIBILITY.

FLZ001>010-012>015-112-114-115-250100-
PANHANDLE FLORIDA
  
CITY           SKY/WX    TMP DP  RH WIND       PRES   REMARKS
PENSACOLA      FAIR      84  71  65 SW7       30.07F                  
PENSACOLA NAS  FAIR      82  73  74 S7        30.08F                  
MILTON NAS     FAIR      84  74  71 S9        30.08F                  
CRESTVIEW      FAIR      89  65  44 CALM      30.09F                  
DUKE FIELD     FAIR      87  72  61 S8        30.08S                  
VALPARAISO     FAIR      83  73  72 S7        30.08F                  
MARY ESTHER    CLEAR     82  73  74 CALM      30.07F                  
TRI COUNTY     FAIR      86  71  60 CALM      30.09                   
PANAMA CITY    FAIR      82  71  69 MISG      30.09S                  
APALACHICOLA   FAIR      82  69  64 SW3       30.09S                  

STATION/POSITION SKY/WX   TEMP    WIND        PRES    WAVE   SWELL
                          AIR SEA DIR/SP/G            HT/PER HT/PER
                          (F)     (DEG/KT/KT) (MB)    (FT/S) (FT/S)
30.1N   87.6W                                   N/A     3/ 6
29.2N   88.2W                     100/ 12/ 16 1019.0F   4/ 7   3/ 7
PANAMA CITY BEAC           80 85  230/  7/  8 1019.7F
TOWER C          NOT AVBL

$$
FLZ011-016>038-118-127-128-134-139-239-250100-
NORTH FLORIDA
  
CITY           SKY/WX    TMP DP  RH WIND       PRES   REMARKS
MARIANNA       FAIR      90  56  31 VRB3      30.08S                  
TALLAHASSEE    FAIR      93  63  36 N6        30.07S                  
PERRY          FAIR      88  73  61 W6        30.08S HX  96           
LIVE OAK       CLEAR     90  61  37 CALM      30.08R                  
CROSS CITY     FAIR      85  72  66 W8        30.07S                  
LAKE CITY      FAIR      86  64  48 NE5       30.09R                  
GAINESVILLE    FAIR      88  62  41 E7        30.11R                  
WILLISTON      FAIR      88  62  41 E3        30.08S                  
PALATKA        FAIR     N/A N/A N/A E7        30.10S                  
MAYPORT NAS    FAIR      80  66  62 S8        30.10S                  
JACKSONVILLE   FAIR      83  60  45 SE8       30.09R                  
JAX NAS        FAIR      87  61  41 SE9       30.10S                  
JAX CECIL      CLEAR     88  63  42 E8        30.09S                  
FERNANDINA BEA FAIR      80  66  63 S9        30.10S                  
ST AUGUSTINE   FAIR      78  68  71 SE6       30.12S                  
PALM COAST     FAIR      77  67  71 E5        30.11S                  

STATION/POSITION SKY/WX   TEMP    WIND        PRES    WAVE   SWELL
                          AIR SEA DIR/SP/G            HT/PER HT/PER
                          (F)     (DEG/KT/KT) (MB)    (FT/S) (FT/S)
SHELL POINT      NOT AVBL
KEATON BEACH               83     280/  6/  7 1018.7S
CEDAR KEY                  82     330/  6/  9 1018.5R
FERNANDINA                 83 85  160/  5/  8 1019.9S
30.7N   81.3W                 81                N/A     2/ 7
MAYPORT                    80 83  160/  5/  7 1019.8R
31.4N   80.9W              79 80  190/ 12/ 12 1018.7F   2/ 7   2/ 7
ST AUGUSTINE               78 83  150/  5/  6 1019.8F

$$
FLZ040-043>046-052-053-057-058-063-144-250100-
INTERIOR CENTRAL FLORIDA
  
CITY           SKY/WX    TMP DP  RH WIND       PRES   REMARKS
OCALA          FAIR      87  61  41 E8        30.09R                  
LEESBURG       FAIR      84  60  44 E8        30.10R                  
SANFORD        FAIR      80  66  62 E7        30.11R                  
ORLANDO EXEC   FAIR      80  64  58 E10       30.11R                  
ORLANDO INTL   FAIR      81  64  56 E9        30.10R                  
KISSIMMEE      FAIR      82  66  58 E12       30.11R                  
WINTER HAVEN   FAIR      84  64  50 E9        30.09R                  
BARTOW         FAIR      82  64  54 E9G16     30.08R                  
SEBRING        FAIR      80  64  58 E9        30.09R                  
OKEECHOBEE     FAIR      77  64  65 E6        30.08S                  

$$
FLZ041-047-054-059-064-141-147-250100-
EAST CENTRAL FLORIDA
  
CITY           SKY/WX    TMP DP  RH WIND       PRES   REMARKS
DAYTONA BEACH  FAIR      77  69  76 E5        30.12R                  
DELAND         FAIR      79  64  61 E8        30.11R                  
NEW SMYRNA BEA CLEAR     77  66  69 E7        30.12S                  
TITUSVILLE     CLEAR     81  66  61 E7        30.12R                  
CAPE CANAVERAL FAIR      77  62  59 E5        30.09S                  
PATRICK AFB    FAIR      78  69  73 E10       30.10S                  
MELBOURNE      FAIR      79  66  64 NE12      30.10S                  
VERO BEACH     FAIR      77  65  66 NE7       30.10R                  
FT PIERCE      FAIR      77  65  66 NE9       30.10R                  
STUART         PTCLDY    79  64  61 E12       30.10S                  

STATION/POSITION SKY/WX   TEMP    WIND        PRES    WAVE   SWELL
                          AIR SEA DIR/SP/G            HT/PER HT/PER
                          (F)     (DEG/KT/KT) (MB)    (FT/S) (FT/S)
28.5N   80.2W              78      60/  8/ 10 1019.8
28.9N   78.5W              77 79   50/  8/ 10 1020.0R
TRIDENT PIER               78 82   50/  5/  7 1020.8R
28.4N   80.5W                 80                N/A     2/ 7
27.5N   80.2W                 78                N/A     4/ 8

$$
FLZ050-056-061-142-242-148-248-149-249-151-251-155-255-
160-260-250100-
WEST CENTRAL FLORIDA
  
CITY           SKY/WX    TMP DP  RH WIND       PRES   REMARKS
CRYSTAL RIVER  FAIR      82  73  74 CALM      30.08R                  
INVERNESS      FAIR      86  64  48 E5        30.09R                  
BROOKSVILLE    FAIR      87  63  44 E8        30.08R                  
CLEARWATER AIR FAIR      82  70  65 NW7       30.06R                  
ST PETE CLEARW FAIR      87  65  47 NE9       30.05S                  
TAMPA INTL     FAIR      89  60  37 NE9       30.07R                  
TAMPA EXEC     FAIR      86  63  45 E8        30.07S                  
PLANT CITY     FAIR      86  61  42 E7        30.09S                  
MACDILL AFB    FAIR      87  62  43 E10       30.06R                  
PETER O KNIGHT CLOUDY    88  61  40 E10       30.07R                  
ST PETERSBURG  FAIR      88  68  51 E17       30.04S                  
SARASOTA       FAIR      88  59  37 E12       30.04R                  
VENICE         FAIR      88  63  42 E12G18    30.06R                  

STATION/POSITION SKY/WX   TEMP    WIND        PRES    WAVE   SWELL
                          AIR SEA DIR/SP/G            HT/PER HT/PER
                          (F)     (DEG/KT/KT) (MB)    (FT/S) (FT/S)
27.3N   84.2W                 80                N/A     2/ 6
CLEARWATER BEACH           82 85  340/ 14/ 16 1018.0R
MIDDLE TAMPA BAY           87     100/ 13/ 15 1017.9R
VENICE                     86 82   90/ 10/ 13 1017.7R

$$
FLZ066-069-070-075>078-162-262-165-265-250100-
SOUTHWEST FLORIDA AND KEYS
  
CITY           SKY/WX    TMP DP  RH WIND       PRES   REMARKS
PUNTA GORDA    FAIR      82  64  54 E12       30.08R                  
FT MYERS       FAIR      82  62  50 E12       30.05R                  
SOUTHWEST INTL FAIR      82  62  50 E12       30.06R                  
NAPLES         FAIR      84  62  47 E13       30.04R                  
MARCO ISLAND   FAIR      83  65  54 NE8       30.06R                  
IMMOKALEE      FAIR      81  64  57 NE10      30.05R                  
MARATHON       MOCLDY    83  65  54 NE15      30.03R                  
KEY WEST NAS   FAIR      82  66  58 E20       30.03R                  
KEY WEST INTL  FAIR      80  65  59 E17G23    30.03R                  

STATION/POSITION SKY/WX   TEMP    WIND        PRES    WAVE   SWELL
                          AIR SEA DIR/SP/G            HT/PER HT/PER
                          (F)     (DEG/KT/KT) (MB)    (FT/S) (FT/S)
NAPLES                     85 84              1017.4R
DRY TORTUGAS               81      90/ 17/ 18 1016.7R
SAND KEY                   80                 1016.5R
SOMBRERO KEY               80                 1016.2R

$$
FLZ067-068-071>074-168-172>174-250100-
SOUTHEAST FLORIDA 
  
CITY           SKY/WX    TMP DP  RH WIND       PRES   REMARKS
W PALM BEACH   FAIR      79  63  57 NE13      30.09R                  
BOCA RATON     PTCLDY    79  64  61 E13G18    30.08R                  
FT LAUDER-EXEC FAIR      79  63  57 NE15      30.07R                  
FT LAUDERDALE  FAIR      78  65  63 NE10      30.06R                  
POMPANO BEACH  FAIR      79  64  60 NE14      30.07R                  
PEMBROKE PINES FAIR      79  64  60 NE14      30.08R                  
OPA LOCKA      FAIR      79  65  62 NE14      30.07R                  
MIAMI          FAIR      80  65  59 NE10      30.06R                  
WEST KENDALL   MOCLDY    80  65  59 NE17      30.05R                  
HOMESTEAD      MOCLDY    79  68  68 NE12      30.04R                  

STATION/POSITION SKY/WX   TEMP    WIND        PRES    WAVE   SWELL
                          AIR SEA DIR/SP/G            HT/PER HT/PER
                          (F)     (DEG/KT/KT) (MB)    (FT/S) (FT/S)
PORT EVERGLADES            79      50/ 12/ 16 1017.9F
VIRGINIA KEY               79 83   30/  9/ 17 1017.0R
LAKE WORTH                 77 81              1019.7R
SETTLEMENT POINT           77      50/ 16/ 18 1018.8R

$$